FALCON 9 R/B, 56175

Orbit data source: Space-Track

FALCON 9 R/B, 56175 is space debris in HEO originally from a launch on Fri, 07 Apr 2023 UTC launched from the Air Force Eastern Test Range (AFETR). Debris objects in space refer to the collection of defunct objects orbiting the Earth. Examples of debris include non-operational satellites, rocket bodies, and fragments generated from explosions, collisions, or faulty payload assembly.

Loading next visibility...
Identifier
56175, 2023-052B
Orbit
HEO
Country
Flag of USUS
Related business
Manufacturer
SpaceX
Mission
Spacecraft
Bus & Motor
F9ST2, Unknown motor
Mass
~4,000 kg wet, ~4,000 kg dry
Launch date (UTC)
2023-04-07 (3 years ago)
Launch vehicle
Unknown
Launch site
Air Force Eastern Test Range (AFETR)
Object type
Payload
Rocket body
Debris
Shape & HBR
Cyl, 7.8 m
Radar Cross Section
39.980 m², Large (>1 m²)

Expand to show TLE details & history
Last TLE update: 2 days ago

TLE from 2 days ago
0 FALCON 9 R/B
1 56175U 23052B   26171.02473160  .00028470  27551-6  69769-3 0  9993
2 56175  26.9280 116.3685 6058492 261.6159  29.7717  4.03627923 38715
Epoch: 2026-06-20T00:35Z
TLE epoch observation values (Epoch: 2026-06-20T00:35:36.810Z)
Latitude
0.00014°
Longitude
-160.82251°
Altitude
5,198.114 km
Speed
6.704 km/s
True Right ascension
07h 45m 18s
True Declination
0° 00' 01"
Sunlit
Object was in daylight at epoch
Visualization orbit readout
Latitude
Unknown
Longitude
Unknown
Altitude
Unknown
Speed
Unknown
Apparent Right ascension
Unknown
Apparent Declination
Unknown
Sunlit
N/A
Visualization observer readout
Local Sidereal Time
21:40:39
Azimuth
Unknown
Elevation
Unknown
Doppler factor
Unknown
Orbital elements
Apogee altitude
20,385.643 km
Perigee altitude
190.951 km
Semi-major axis
16,666.434 km
Eccentricity
0.60585
Inclination
26.928°
RAAN
116.3685°
Arg. of periapsis
261.6159°
True anomaly
98.46087°
Mean anomaly
29.7717°
Eccentric anomaly
59.76105°
Mean motion
1.00874 °/min
Orbital period
356.88 mins
BSTAR
0.00069769
Loading maneuver chart data...
Computing Atmospheric mass density...
Loading historical data...
Loading historical data...
Loading historical data...
Loading historical data...
Loading historical data...
Loading historical data...
Loading historical data...
Other satellites on launch #52 in the year 2023 (2023-04-07 UTC)

Documentation

Showing up to 5 results
|